Weather History for Canby, MN

Change the Weather History Date:

Saturday, July 13, 2013

  Actual Average (KMML) Record (KMML)
Temperature  
Mean Temperature 78 °F -  
Max Temperature 85 °F 85 °F 103 °F (1954)
Min Temperature 72 °F 61 °F 47 °F (1950)
Cooling Degree Days 14    
Growing Degree Days 28 (Base 50)    
Moisture  
Dew Point 70 °F    
Average Humidity 76    
Maximum Humidity 89    
Minimum Humidity 65    
Precipitation  
Precipitation 0.00 in - - ()
Sea Level Pressure  
Sea Level Pressure 29.92 in    
Wind  
Wind Speed 10 mph (SSE)    
Max Wind Speed 22 mph    
Max Gust Speed 28 mph    
Visibility 10 miles    
Events Rain    
Averages and records for this station are not official NWS values.
T = Trace of Precipitation, MM = Missing Value Source: NWS Daily Summary

Daily Weather History Graph

Daily Weather History Graph

Search for Another Location

Airport:

Trip Planner

Search our weather history database for the weather conditions in past years. The results will help you decide how hot, cold, wet, or windy it might be!

Date:

Astronomy

Jul. 13, 2013 Rise Set
Actual Time 5:52 AM CDT 9:09 PM CDT
Civil Twilight 5:16 AM CDT 9:44 PM CDT
Nautical Twilight 4:29 AM CDT 10:31 PM CDT
Astronomical Twilight 3:31 AM CDT 11:28 PM CDT
Moon 11:25 AM CDT (7/13) 11:33 PM CDT (7/13)
Length of Visible Light 16h 28m
Length of Day
15h 17m
Waxing Crescent, 26% of the Moon is Illuminated
Jul 13
Waxing Crescent
Jul 15
First Quarter
Jul 22
Full
Jul 29
Last Quarter
Aug 6
New

Hourly Weather History & Observations

Time (CDT) Temp. Heat Index Dew Point Humidity Pressure Visibility Wind Dir Wind Speed Gust Speed Precip Events Conditions
12:14 AM 81.1 °F 84.0 °F 68.5 °F 65% 29.87 in 10.0 mi South 11.5 mph 17.3 mph N/A   Clear
12:34 AM 80.6 °F 83.5 °F 68.5 °F 67% 29.87 in 10.0 mi South 9.2 mph - N/A   Clear
12:54 AM 80.4 °F 83.2 °F 68.4 °F 67% 29.87 in 10.0 mi South 11.5 mph 18.4 mph N/A   Clear
1:15 AM 80.1 °F 82.7 °F 68.2 °F 67% 29.87 in 10.0 mi South 15.0 mph 19.6 mph N/A   Clear
1:34 AM 79.9 °F - 68.2 °F 67% 29.86 in 10.0 mi SSW 13.8 mph 20.7 mph N/A   Clear
1:55 AM 79.7 °F - 68.0 °F 67% 29.85 in 10.0 mi SSW 17.3 mph 23.0 mph N/A   Clear
2:14 AM 79.7 °F - 68.0 °F 67% 29.85 in 10.0 mi SSW 18.4 mph 25.3 mph N/A   Clear
2:34 AM 79.3 °F - 68.0 °F 68% 29.84 in 10.0 mi SSW 17.3 mph 25.3 mph N/A   Clear
2:55 AM 79.2 °F - 68.0 °F 69% 29.84 in 10.0 mi SSW 18.4 mph 26.5 mph N/A   Clear
3:14 AM 79.2 °F - 68.0 °F 69% 29.84 in 10.0 mi SSW 18.4 mph 27.6 mph N/A   Clear
3:35 AM 79.5 °F - 68.4 °F 69% 29.84 in 10.0 mi SSW 17.3 mph 25.3 mph N/A   Clear
3:54 AM 79.3 °F - 68.2 °F 69% 29.84 in 10.0 mi SW 16.1 mph 25.3 mph N/A   Clear
4:15 AM 78.8 °F - 68.2 °F 70% 29.84 in 10.0 mi SW 12.7 mph 21.9 mph N/A   Clear
4:34 AM 78.3 °F - 68.0 °F 71% 29.85 in 10.0 mi SSW 16.1 mph 24.2 mph N/A   Clear
4:54 AM 77.9 °F - 68.2 °F 72% 29.85 in 10.0 mi SW 5.8 mph - N/A   Clear
5:15 AM 77.9 °F - 68.4 °F 72% 29.86 in 10.0 mi SW 8.1 mph 17.3 mph N/A   Clear
5:34 AM 77.0 °F - 68.5 °F 75% 29.89 in 10.0 mi NNE 10.4 mph 17.3 mph N/A   Clear
5:54 AM 76.1 °F - 68.5 °F 77% 29.90 in 10.0 mi Calm Calm - N/A   Clear
6:15 AM 75.6 °F - 69.1 °F 80% 29.91 in 10.0 mi SW 3.5 mph - N/A   Mostly Cloudy
6:35 AM 75.6 °F - 69.4 °F 81% 29.92 in 10.0 mi Calm Calm - N/A   Overcast
6:54 AM 75.4 °F - 69.6 °F 82% 29.90 in 10.0 mi North 3.5 mph - N/A   Scattered Clouds
7:15 AM 75.4 °F - 69.8 °F 83% 29.92 in 10.0 mi Calm Calm - N/A   Mostly Cloudy
7:34 AM 76.3 °F - 70.9 °F 83% 29.92 in 10.0 mi Calm Calm - N/A   Overcast
7:54 AM 77.0 °F - 71.6 °F 83% 29.93 in 10.0 mi Calm Calm - N/A   Overcast
8:15 AM 76.6 °F - 70.9 °F 82% 29.93 in 10.0 mi SE 3.5 mph - N/A   Overcast
8:34 AM 76.3 °F - 70.7 °F 83% 29.93 in 10.0 mi SE 4.6 mph - N/A   Overcast
8:55 AM 76.8 °F - 70.7 °F 81% 29.92 in 10.0 mi SSE 5.8 mph - N/A   Overcast
9:14 AM 77.0 °F - 70.9 °F 81% 29.94 in 10.0 mi South 4.6 mph - N/A   Overcast
9:34 AM 77.5 °F - 71.1 °F 80% 29.95 in 10.0 mi South 5.8 mph - N/A   Overcast
9:55 AM 77.2 °F - 70.7 °F 80% 29.95 in 10.0 mi South 5.8 mph - N/A   Overcast
10:14 AM 76.3 °F - 71.4 °F 85% 29.95 in 7.0 mi South 5.8 mph - N/A Rain Light Rain
10:34 AM 76.6 °F - 71.8 °F 85% 29.93 in 10.0 mi ESE 6.9 mph - N/A   Mostly Cloudy
10:54 AM 75.6 °F - 70.3 °F 84% 29.91 in 10.0 mi ESE 13.8 mph - N/A   Mostly Cloudy
11:15 AM 73.9 °F - 69.1 °F 85% 29.85 in 10.0 mi ESE 21.9 mph 25.3 mph N/A   Mostly Cloudy
11:34 AM 72.7 °F - 69.1 °F 88% 29.92 in 7.0 mi South 10.4 mph 18.4 mph N/A   Scattered Clouds
11:55 AM 72.0 °F - 68.7 °F 89% 29.92 in 7.0 mi SSE 9.2 mph 19.6 mph N/A Rain Light Rain
12:14 PM 73.0 °F - 69.6 °F 89% 29.93 in 7.0 mi SSE 10.4 mph - N/A   Scattered Clouds
12:34 PM 74.5 °F - 70.0 °F 86% 29.94 in 10.0 mi South 5.8 mph - N/A   Mostly Cloudy
12:55 PM 75.7 °F - 70.5 °F 84% 29.96 in 10.0 mi Calm Calm - N/A   Scattered Clouds
1:15 PM 77.2 °F - 71.1 °F 81% 29.95 in 10.0 mi South 3.5 mph - N/A   Scattered Clouds
1:34 PM 77.5 °F - 71.4 °F 81% 29.95 in 10.0 mi Calm Calm - N/A   Mostly Cloudy
1:55 PM 79.0 °F - 72.1 °F 79% 29.95 in 10.0 mi SE 3.5 mph - N/A   Mostly Cloudy
2:14 PM 81.7 °F 86.3 °F 71.8 °F 72% 29.95 in 10.0 mi SE 5.8 mph - N/A   Scattered Clouds
2:34 PM 82.8 °F 87.4 °F 71.2 °F 68% 29.95 in 10.0 mi SSE 8.1 mph - N/A   Clear
2:55 PM 82.9 °F 88.0 °F 72.0 °F 69% 29.94 in 10.0 mi SE 9.2 mph - N/A   Clear
3:14 PM 84.2 °F 90.6 °F 73.2 °F 69% 29.94 in 10.0 mi SE 8.1 mph - N/A   Clear
3:34 PM 84.4 °F 90.6 °F 72.9 °F 68% 29.94 in 10.0 mi SE 5.8 mph - N/A   Clear
3:54 PM 85.1 °F 91.5 °F 72.7 °F 66% 29.94 in 10.0 mi SSE 8.1 mph - N/A   Clear
4:15 PM 85.1 °F 92.2 °F 73.4 °F 68% 29.94 in 10.0 mi ESE 8.1 mph - N/A   Clear
4:34 PM 84.9 °F 92.1 °F 73.6 °F 69% 29.94 in 10.0 mi SE 9.2 mph - N/A   Clear
4:54 PM 85.1 °F 92.6 °F 73.9 °F 69% 29.93 in 10.0 mi SE 6.9 mph - N/A   Clear
5:15 PM 84.6 °F 92.1 °F 74.1 °F 71% 29.94 in 10.0 mi SE 8.1 mph - N/A   Scattered Clouds
5:34 PM 84.7 °F 92.1 °F 73.9 °F 70% 29.94 in 10.0 mi SE 8.1 mph - N/A   Scattered Clouds
5:54 PM 85.1 °F 92.9 °F 74.3 °F 70% 29.94 in 10.0 mi SSE 8.1 mph - N/A   Scattered Clouds
6:14 PM 84.0 °F 90.5 °F 73.4 °F 70% 29.94 in 10.0 mi SE 5.8 mph - N/A   Scattered Clouds
6:35 PM 82.9 °F 89.4 °F 73.9 °F 74% 29.93 in 10.0 mi ESE 9.2 mph - N/A   Mostly Cloudy
6:54 PM 81.7 °F 86.7 °F 72.9 °F 74% 29.93 in 10.0 mi ESE 9.2 mph - N/A   Overcast
7:14 PM 81.0 °F 86.0 °F 73.4 °F 78% 29.94 in 10.0 mi SE 6.9 mph - N/A   Mostly Cloudy
7:35 PM 79.7 °F - 71.6 °F 76% 29.93 in 10.0 mi SE 11.5 mph - N/A   Mostly Cloudy
7:54 PM 79.2 °F - 71.6 °F 78% 29.94 in 10.0 mi SE 8.1 mph - N/A   Overcast
8:14 PM 78.8 °F - 70.2 °F 75% 29.93 in 10.0 mi SE 10.4 mph - N/A   Overcast
8:35 PM 78.3 °F - 69.6 °F 75% 29.93 in 10.0 mi SE 9.2 mph - N/A   Overcast
8:54 PM 77.4 °F - 69.8 °F 77% 29.93 in 10.0 mi SE 6.9 mph - N/A   Overcast
9:14 PM 77.0 °F - 69.8 °F 78% 29.93 in 10.0 mi ESE 6.9 mph - N/A   Overcast
9:34 PM 76.6 °F - 69.8 °F 79% 29.94 in 10.0 mi ESE 9.2 mph - N/A   Overcast
9:55 PM 76.3 °F - 68.9 °F 78% 29.95 in 10.0 mi ESE 9.2 mph - N/A   Overcast
10:14 PM 75.6 °F - 68.5 °F 79% 29.96 in 10.0 mi ESE 8.1 mph - N/A   Overcast
10:34 PM 75.0 °F - 68.5 °F 80% 29.97 in 10.0 mi ESE 8.1 mph - N/A   Mostly Cloudy
10:55 PM 74.1 °F - 68.5 °F 83% 29.98 in 10.0 mi ESE 5.8 mph - N/A   Scattered Clouds
11:14 PM 73.4 °F - 68.5 °F 85% 29.99 in 10.0 mi ESE 4.6 mph - N/A   Scattered Clouds
11:35 PM 73.0 °F - 68.5 °F 86% 30.00 in 10.0 mi SE 4.6 mph - N/A   Mostly Cloudy
11:55 PM 72.9 °F - 68.7 °F 87% 30.00 in 10.0 mi ESE 5.8 mph - N/A   Scattered Clouds